Date,TemperatureHighF,TemperatureAvgF,TemperatureLowF,DewpointHighF,DewpointAvgF,DewpointLowF,HumidityHigh,HumidityAvg,HumidityLow,PressureMaxIn,PressureMinIn,WindSpeedMaxMPH,WindSpeedAvgMPH,GustSpeedMaxMPH,PrecipitationSumIn
2013-1-1,48,36,31,-100,-100,-100,0,0,100,28.85,28.26,16,8,0,0.00
2013-1-2,48,43,36,-100,-100,-100,0,0,100,28.99,28.85,19,9,0,0.00
2013-1-3,50,48,44,-100,-100,-100,0,0,100,29.33,28.98,21,10,0,0.00
2013-1-4,48,46,43,-100,-100,-100,0,0,100,29.39,29.32,19,11,0,0.00
2013-1-5,47,45,41,-100,-100,-100,0,0,100,29.36,29.21,20,10,0,0.00
2013-1-6,47,42,35,-100,-100,-100,0,0,100,29.36,29.13,16,5,0,0.00
2013-1-7,47,45,44,-100,-100,-100,0,0,100,29.13,28.95,12,6,0,0.00
2013-1-8,48,43,36,-100,-100,-100,0,0,100,29.09,28.91,16,6,0,0.00
2013-1-9,48,37,33,-100,-100,-100,0,0,100,29.08,28.97,9,1,0,0.00
2013-1-10,40,36,29,-100,-100,-100,0,0,100,28.98,28.87,9,1,0,0.00
2013-1-11,40,34,29,-100,-100,-100,0,0,100,28.94,28.88,6,-3,0,0.00
2013-1-12,44,32,26,-100,-100,-100,0,0,100,29.04,28.86,11,-2,0,0.00
2013-1-13,32,30,26,-100,-100,-100,0,0,100,29.04,28.90,8,-3,0,0.00
2013-1-14,42,32,28,-100,-100,-100,0,0,100,28.89,28.66,12,-7,0,0.00
2013-1-15,43,28,16,-100,-100,-100,0,0,100,28.83,28.74,9,-15,0,0.00
2013-1-16,30,25,17,-100,-100,-100,0,0,100,28.89,28.76,5,0,0,0.00
2013-1-17,34,29,27,-100,-100,-100,0,0,100,28.90,28.74,16,-6,0,0.00
2013-1-18,38,29,25,-100,-100,-100,0,0,100,28.74,28.49,22,-1,0,0.00
2013-1-19,38,29,24,-100,-100,-100,0,0,100,28.65,28.50,20,-7,0,0.00
2013-1-20,30,29,27,-100,-100,-100,0,0,100,28.63,28.46,15,6,0,0.00
2013-1-21,32,30,29,-100,-100,-100,0,0,100,28.46,28.40,28,9,0,0.00
2013-1-22,33,31,28,-100,-100,-100,0,0,100,28.76,28.44,26,6,0,0.00
2013-1-23,35,30,23,-100,-100,-100,0,0,100,28.87,28.75,8,1,0,0.00
2013-1-24,37,31,28,-100,-100,-100,0,0,100,28.98,28.87,11,2,0,0.00
2013-1-25,34,32,30,-100,-100,-100,0,0,100,28.89,28.33,15,7,0,0.00
2013-1-26,44,35,29,-100,-100,-100,0,0,100,28.51,27.94,26,-5,0,0.00
2013-1-27,42,37,33,-100,-100,-100,0,0,100,28.18,27.77,24,13,0,0.00
2013-1-28,42,38,33,-100,-100,-100,0,0,100,28.31,27.89,23,15,0,0.00
2013-1-29,48,42,38,-100,-100,-100,0,0,100,28.30,27.95,23,12,0,0.00
2013-1-31,38,36,36,-100,-100,-100,0,0,100,28.46,28.43,15,-14,0,0.00
2013-2-1,40,35,27,-100,-100,-100,0,0,100,28.74,28.32,19,9,0,0.00
2013-2-2,46,32,25,-100,-100,-100,0,0,100,29.11,28.75,13,5,0,0.00
2013-2-3,49,40,32,-100,-100,-100,0,0,100,28.95,28.46,22,12,0,0.00
2013-2-4,45,34,27,-100,-100,-100,0,0,100,28.54,28.29,23,11,0,0.00
2013-2-5,47,33,26,-100,-100,-100,0,0,100,28.51,28.03,23,2,0,0.00
2013-2-6,46,35,30,-100,-100,-100,0,0,100,29.05,28.51,25,4,0,0.00
2013-2-7,40,32,27,-100,-100,-100,0,0,100,29.04,28.91,10,4,0,0.00
2013-2-8,46,36,30,-100,-100,-100,0,0,100,29.08,28.98,15,5,0,0.00
2013-2-9,39,35,33,-100,-100,-100,0,0,100,29.05,28.73,6,-7,0,0.00
2013-2-10,34,22,31,-100,-100,-100,0,0,100,28.73,28.35,22,-340,0,0.00
2013-2-11,46,33,28,-100,-100,-100,0,0,100,28.86,28.42,20,10,0,0.00
2013-2-12,30,30,27,-100,-100,-100,0,0,100,29.00,28.86,10,-18,0,0.00
2013-2-13,37,33,28,-100,-100,-100,0,0,100,28.87,28.50,17,1,0,0.00
2013-2-14,50,40,35,-100,-100,-100,0,0,100,28.67,28.51,13,5,0,0.00
2013-2-15,37,33,28,-100,-100,-100,0,0,100,29.05,29.03,7,-35,0,0.00
2013-2-16,46,39,28,-100,-100,-100,0,0,100,29.05,29.02,12,3,0,0.00
2013-2-17,41,35,29,-100,-100,-100,0,0,100,29.04,29.01,10,-7,0,0.00
2013-2-18,60,36,26,-100,-100,-100,0,0,100,29.05,29.01,9,3,0,0.00
2013-2-19,30,28,25,-100,-100,-100,0,0,100,29.04,29.03,8,1,0,0.00
2013-2-21,31,30,30,-100,-100,-100,0,0,100,29.20,29.19,13,-13,0,0.00
2013-2-22,34,31,29,-100,-100,-100,0,0,100,29.22,29.17,12,4,0,0.00
2013-2-23,29,29,28,-100,-100,-100,0,0,100,29.20,29.17,11,5,0,0.00
2013-2-24,44,34,31,-100,-100,-100,0,0,100,29.39,29.31,13,4,0,0.00
2013-2-25,46,34,28,-100,-100,-100,0,0,100,29.52,29.39,15,4,0,0.00
2013-2-27,42,34,31,-100,-100,-100,0,0,100,29.52,29.50,12,-36,0,0.00
2013-2-28,61,39,26,-100,-100,-100,0,0,100,29.50,29.42,10,-1,0,0.00
2013-3-1,56,39,26,-100,-100,-100,0,0,100,29.45,29.35,13,-15,0,0.00
2013-3-2,63,42,26,-100,-100,-100,0,0,100,29.35,29.18,13,-5,0,0.00
2013-3-3,41,40,40,-100,-100,-100,0,0,100,29.19,29.17,4,0,0,0.00
2013-3-5,34,15,32,-100,-100,-100,0,0,100,28.64,28.61,4,-564,0,0.00
2013-3-6,-200,0,200,-100,-100,-100,0,0,100,28.66,28.59,0,-999,0,0.00
2013-3-7,-200,0,200,-100,-100,-100,0,0,100,28.59,28.50,0,-999,0,0.00
2013-3-8,-200,0,200,-100,-100,-100,0,0,100,28.65,28.50,0,-999,0,0.00
2013-3-9,-200,0,200,-100,-100,-100,0,0,100,28.82,28.65,0,-999,0,0.00
2013-3-10,32,2,27,-100,-100,-100,0,0,100,28.96,28.82,16,-928,0,0.00
2013-3-11,21,20,20,-100,-100,-100,0,0,100,29.04,29.03,14,-91,0,0.00
2013-3-12,45,31,19,-100,-100,-100,0,0,100,29.03,28.83,18,-46,0,0.00
2013-3-13,52,34,25,-100,-100,-100,0,0,100,28.91,28.79,14,-56,0,0.00
2013-3-14,48,33,20,-100,-100,-100,0,0,100,28.91,28.54,13,-39,0,0.00
2013-3-15,49,36,26,-100,-100,-100,0,0,100,28.54,28.32,16,-29,0,0.00
2013-3-16,34,32,27,-100,-100,-100,0,0,100,28.34,28.15,17,-58,0,0.00
2013-3-17,42,33,26,-100,-100,-100,0,0,100,28.21,28.08,12,-46,0,0.00
2013-3-18,35,32,29,-100,-100,-100,0,0,100,28.44,28.21,22,-51,0,0.00
2013-3-19,35,32,30,-100,-100,-100,0,0,100,28.50,28.44,23,-52,0,0.00
2013-3-21,31,30,30,-100,-100,-100,0,0,100,28.97,28.94,21,-67,0,0.00
2013-3-22,32,30,29,-100,-100,-100,0,0,100,28.95,28.87,37,-57,0,0.00
2013-3-23,31,29,28,-100,-100,-100,0,0,100,29.09,28.94,36,-45,0,0.00
2013-3-24,35,30,28,-100,-100,-100,0,0,100,29.20,29.08,31,-48,0,0.00
2013-3-25,36,30,28,-100,-100,-100,0,0,100,29.20,29.16,22,-69,0,0.00
2013-3-26,41,30,22,-100,-100,-100,0,0,100,29.16,29.07,22,-55,0,0.00
2013-3-27,48,32,24,-100,-100,-100,0,0,100,29.07,29.00,21,-61,0,0.00
2013-3-28,42,32,24,-100,-100,-100,0,0,100,29.02,28.96,18,-65,0,0.00
2013-3-29,51,33,23,-100,-100,-100,0,0,100,28.96,28.85,17,-66,0,0.00
2013-3-30,49,32,23,-100,-100,-100,0,0,100,28.95,28.87,11,-95,0,0.00
2013-3-31,48,31,20,-100,-100,-100,0,0,100,28.95,28.91,15,-31,0,0.00
2013-4-1,47,32,23,-100,-100,-100,0,0,100,29.01,28.92,22,-96,0,0.00
2013-4-2,50,32,24,-100,-100,-100,0,0,100,29.15,29.00,15,-81,0,0.00
2013-4-3,54,42,31,-100,-100,-100,0,0,100,29.22,29.18,16,-55,0,0.00
2013-4-4,51,38,31,-100,-100,-100,0,0,100,29.20,29.14,18,-48,0,0.00
2013-4-5,45,35,27,-100,-100,-100,0,0,100,29.19,29.13,16,-79,0,0.00
2013-4-6,62,38,20,-100,-100,-100,0,0,100,29.19,29.12,11,-65,0,0.00
2013-4-7,53,38,28,-100,-100,-100,0,0,100,29.12,28.92,12,-53,0,0.00
2013-4-8,48,36,29,-100,-100,-100,0,0,100,28.92,28.68,23,-18,0,0.00
2013-4-9,46,35,27,-100,-100,-100,0,0,100,28.68,28.60,19,-48,0,0.00
2013-4-10,46,35,28,-100,-100,-100,0,0,100,28.65,28.54,13,-50,0,0.00
2013-4-11,46,37,30,-100,-100,-100,0,0,100,28.54,28.37,16,-21,0,0.00
2013-4-12,48,38,33,-100,-100,-100,0,0,100,28.59,28.33,12,-51,0,0.00
2013-4-13,60,45,37,-100,-100,-100,0,0,100,28.69,28.43,20,-45,0,0.00
2013-4-14,61,49,46,-100,-100,-100,0,0,100,28.47,28.37,26,-29,0,0.00
2013-4-15,62,48,43,-100,-100,-100,0,0,100,28.71,28.46,25,-60,0,0.00
2013-4-16,55,45,38,-100,-100,-100,0,0,100,28.78,28.35,31,-64,0,0.00
2013-4-17,54,42,30,-100,-100,-100,0,0,100,28.79,28.11,26,-41,0,0.00
2013-4-18,58,45,39,-100,-100,-100,0,0,100,28.84,28.08,23,-54,0,0.00
2013-4-19,66,46,32,-100,-100,-100,0,0,100,29.35,28.85,13,-9,0,0.00
2013-4-20,61,46,32,-100,-100,-100,0,0,100,29.35,29.08,21,-43,0,0.00
2013-4-21,59,45,34,-100,-100,-100,0,0,100,29.08,28.78,19,-43,0,0.00
2013-4-22,59,44,33,-100,-100,-100,0,0,100,28.79,28.56,27,-28,0,0.00
2013-4-23,60,47,39,-100,-100,-100,0,0,100,28.99,28.68,18,-46,0,0.00
2013-4-24,60,48,39,-100,-100,-100,0,0,100,29.14,28.83,18,-49,0,0.00
2013-4-25,56,41,34,-100,-100,-100,0,0,100,29.13,28.96,15,-39,0,0.00
2013-4-26,61,41,32,-100,-100,-100,0,0,100,28.97,28.78,18,-37,0,0.00
2013-4-27,59,43,33,-100,-100,-100,0,0,100,29.05,28.90,17,-19,0,0.00
2013-4-28,56,41,34,-100,-100,-100,0,0,100,28.90,28.56,20,-46,0,0.00
2013-4-29,59,44,34,-100,-100,-100,0,0,100,29.02,28.56,25,-37,0,0.00
2013-4-30,66,47,29,-100,-100,-100,0,0,100,29.23,29.02,14,-73,0,0.00
2013-5-1,62,44,33,-100,-100,-100,0,0,100,29.20,29.05,17,-20,0,0.00
2013-5-2,58,44,28,-100,-100,-100,0,0,100,29.20,28.95,16,-28,0,0.00
2013-5-3,52,46,38,-100,-100,-100,0,0,100,28.95,28.63,20,-15,0,0.00
2013-5-4,57,44,32,-100,-100,-100,0,0,100,28.84,28.66,19,-56,0,0.00
2013-5-5,63,51,41,-100,-100,-100,0,0,100,28.99,28.84,22,-38,0,0.00
2013-5-6,65,50,40,-100,-100,-100,0,0,100,29.00,28.95,19,-45,0,0.00
2013-5-7,78,57,36,-100,-100,-100,0,0,100,29.01,28.83,16,-69,0,0.00
2013-5-8,61,50,42,-100,-100,-100,0,0,100,28.83,28.46,27,-69,0,0.00
2013-5-9,58,46,39,-100,-100,-100,0,0,100,28.50,28.29,22,-51,0,0.00
2013-5-10,64,48,37,-100,-100,-100,0,0,100,28.59,28.32,15,-48,0,0.00
2013-5-11,55,43,34,-100,-100,-100,0,0,100,28.68,28.45,15,-40,0,0.00
2013-5-12,57,44,36,-100,-100,-100,0,0,100,28.73,28.54,18,-30,0,0.00
2013-5-13,54,40,34,-100,-100,-100,0,0,100,28.57,28.40,22,-19,0,0.00
2013-5-14,58,42,33,-100,-100,-100,0,0,100,28.40,28.33,21,-20,0,0.00
2013-5-15,57,41,30,-100,-100,-100,0,0,100,28.38,28.26,18,-43,0,0.00
2013-5-16,66,46,32,-100,-100,-100,0,0,100,28.65,28.35,15,-17,0,0.00
2013-5-17,67,50,35,-100,-100,-100,0,0,100,28.81,28.65,16,-20,0,0.00
2013-5-18,50,46,44,-100,-100,-100,0,0,100,28.79,28.67,22,-52,0,0.00
2013-5-19,64,51,44,-100,-100,-100,0,0,100,28.94,28.76,13,-52,0,0.00
2013-5-20,75,59,50,-100,-100,-100,0,0,100,28.98,28.88,17,-29,0,0.00
2013-5-21,69,54,40,-100,-100,-100,0,0,100,29.03,28.97,12,-22,0,0.00
2013-5-22,64,49,35,-100,-100,-100,0,0,100,29.03,28.94,26,-30,0,0.00
2013-5-23,53,42,32,-100,-100,-100,0,0,100,28.95,28.83,23,-45,0,0.00
2013-5-24,56,44,33,-100,-100,-100,0,0,100,29.15,28.83,24,-2,0,0.00
2013-5-25,73,53,31,-100,-100,-100,0,0,100,29.15,29.06,12,-48,0,0.00
2013-5-26,66,51,37,-100,-100,-100,0,0,100,29.07,28.74,13,-30,0,0.00
2013-5-27,53,47,41,-100,-100,-100,0,0,100,28.74,28.42,18,-16,0,0.00
2013-5-28,60,49,41,-100,-100,-100,0,0,100,28.73,28.49,17,-33,0,0.00
2013-5-29,61,51,40,-100,-100,-100,0,0,100,28.87,28.73,16,-24,0,0.00
2013-5-30,70,57,47,-100,-100,-100,0,0,100,29.03,28.85,17,-37,0,0.00
2013-5-31,76,56,44,-100,-100,-100,0,0,100,29.11,29.02,0,-60,0,0.00
2013-6-1,68,52,38,-100,-100,-100,0,0,100,29.24,29.11,0,-34,0,0.00
2013-6-2,70,53,34,-100,-100,-100,0,0,100,29.38,29.23,0,-56,0,0.00
2013-6-3,74,57,39,-100,-100,-100,0,0,100,29.44,29.37,0,-48,0,0.00
2013-6-4,74,59,43,-100,-100,-100,0,0,100,29.44,29.27,9,-52,0,0.00
2013-6-5,71,23,43,-100,-100,-100,0,0,100,29.27,29.11,12,-604,0,0.00
2013-6-6,-200,0,200,-100,-100,-100,0,0,100,29.21,29.12,0,-999,0,0.00
2013-6-7,-200,0,200,-100,-100,-100,0,0,100,29.28,29.21,0,-999,0,0.00
2013-6-8,-200,0,200,-100,-100,-100,0,0,100,29.27,29.07,0,-999,0,0.00
2013-6-9,-200,0,200,-100,-100,-100,0,0,100,29.08,28.95,0,-999,0,0.00
2013-6-10,-200,0,200,-100,-100,-100,0,0,100,28.97,28.86,0,-999,0,0.00
2013-6-11,-200,0,200,-100,-100,-100,0,0,100,28.87,28.67,0,-999,0,0.00
2013-6-12,-200,0,200,-100,-100,-100,0,0,100,28.67,28.55,0,-999,0,0.00
2013-6-13,-200,0,200,-100,-100,-100,0,0,100,28.75,28.52,0,-999,0,0.00
2013-6-14,-200,0,200,-100,-100,-100,0,0,100,28.77,28.55,0,-999,0,0.00
2013-6-15,-200,0,200,-100,-100,-100,0,0,100,28.55,28.39,0,-999,0,0.00
2013-6-16,-200,0,200,-100,-100,-100,0,0,100,28.94,28.54,0,-999,0,0.00
2013-6-17,-200,0,200,-100,-100,-100,0,0,100,29.02,28.94,0,-999,0,0.00
2013-6-18,-200,0,200,-100,-100,-100,0,0,100,29.00,28.89,0,-999,0,0.00
2013-6-19,-200,0,200,-100,-100,-100,0,0,100,28.99,28.92,0,-999,0,0.00
2013-6-20,-200,0,200,-100,-100,-100,0,0,100,28.99,28.77,0,-999,0,0.00
2013-6-21,-200,0,200,-100,-100,-100,0,0,100,28.77,28.59,0,-999,0,0.00
2013-6-22,-200,0,200,-100,-100,-100,0,0,100,28.59,28.28,0,-999,0,0.00
2013-6-23,-200,0,200,-100,-100,-100,0,0,100,28.87,28.34,0,-999,0,0.00
2013-6-24,-200,0,200,-100,-100,-100,0,0,100,29.19,28.88,0,-999,0,0.00
2013-6-25,-200,0,200,-100,-100,-100,0,0,100,29.29,29.19,0,-999,0,0.00
2013-6-26,65,13,52,-100,-100,-100,0,0,100,29.36,29.34,0,-999,0,0.00
2013-6-27,61,12,48,-100,-100,-100,0,0,100,29.35,29.09,0,-999,0,0.00
2013-6-28,64,12,48,-100,-100,-100,0,0,100,29.09,28.86,0,-999,0,0.00
2013-6-29,62,11,47,-100,-100,-100,0,0,100,29.09,29.01,0,-999,0,0.00
2013-6-30,65,12,49,-100,-100,-100,0,0,100,29.06,28.82,0,-999,0,0.00
2013-7-1,66,9,47,-100,-100,-100,0,0,100,28.86,28.80,0,-999,0,0.00
2013-7-2,57,12,49,-100,-100,-100,0,0,100,28.84,28.42,0,-999,0,0.00
2013-7-3,64,12,54,-100,-100,-100,0,0,100,28.78,28.43,0,-999,0,0.00
2013-7-4,66,13,51,-100,-100,-100,0,0,100,29.10,28.71,0,-999,0,0.00
2013-7-5,73,12,51,-100,-100,-100,0,0,100,29.31,29.10,0,-999,0,0.00
2013-7-6,77,10,50,-100,-100,-100,0,0,100,29.37,29.26,0,-999,0,0.00
2013-7-7,82,6,59,-100,-100,-100,0,0,100,29.54,29.37,0,-999,0,0.00
2013-7-8,88,12,54,-100,-100,-100,0,0,100,29.56,29.44,0,-999,0,0.00
2013-7-9,87,10,58,-100,-100,-100,0,0,100,29.44,29.30,0,-999,0,0.00
2013-7-10,79,14,59,-100,-100,-100,0,0,100,29.36,29.30,0,-999,0,0.00
2013-7-11,85,14,56,-100,-100,-100,0,0,100,29.31,29.22,0,-999,0,0.00
2013-7-12,86,15,59,-100,-100,-100,0,0,100,29.23,29.17,0,-999,0,0.00
2013-7-13,81,14,57,-100,-100,-100,0,0,100,29.26,29.19,0,-999,0,0.00
2013-7-14,76,11,54,-100,-100,-100,0,0,100,29.26,29.14,0,-999,0,0.00
2013-7-15,71,12,51,-100,-100,-100,0,0,100,29.17,29.13,0,-999,0,0.00
2013-7-16,76,14,59,-100,-100,-100,0,0,100,29.21,29.15,0,-999,0,0.00
2013-7-17,79,14,54,-100,-100,-100,0,0,100,29.30,29.21,0,-999,0,0.00
2013-7-18,85,15,59,-100,-100,-100,0,0,100,29.34,29.29,0,-999,0,0.00
2013-7-19,86,15,59,-100,-100,-100,0,0,100,29.35,29.30,0,-999,0,0.00
2013-7-20,82,14,52,-100,-100,-100,0,0,100,29.32,29.22,0,-999,0,0.00
2013-7-21,79,13,55,-100,-100,-100,0,0,100,29.24,29.10,0,-999,0,0.00
2013-7-22,77,13,58,-100,-100,-100,0,0,100,29.10,28.96,0,-999,0,0.00
2013-7-23,78,12,61,-100,-100,-100,0,0,100,28.96,28.83,0,-999,0,0.00
2013-7-24,78,14,58,-100,-100,-100,0,0,100,28.88,28.84,0,-999,0,0.00
2013-7-25,77,15,59,-100,-100,-100,0,0,100,28.87,28.76,0,-999,0,0.00
2013-7-26,77,13,57,-100,-100,-100,0,0,100,28.83,28.79,0,-999,0,0.00
2013-7-27,80,14,52,-100,-100,-100,0,0,100,28.82,28.64,0,-999,0,0.00
2013-7-28,69,9,56,-100,-100,-100,0,0,100,28.64,28.49,0,-999,0,0.00
2013-7-29,74,11,54,-100,-100,-100,0,0,100,28.72,28.59,0,-999,0,0.00
2013-7-30,71,14,52,-100,-100,-100,0,0,100,28.76,28.71,0,-999,0,0.00
2013-7-31,71,14,52,-100,-100,-100,0,0,100,28.84,28.72,0,-999,0,0.00
2013-8-1,73,15,58,-100,-100,-100,0,0,100,28.73,28.60,0,-999,0,0.00
2013-8-2,75,13,59,-100,-100,-100,0,0,100,28.62,28.52,0,-999,0,0.00
2013-8-3,66,12,53,-100,-100,-100,0,0,100,28.82,28.55,0,-999,0,0.00
2013-8-4,72,13,53,-100,-100,-100,0,0,100,28.86,28.81,0,-999,0,0.00
2013-8-5,68,12,51,-100,-100,-100,0,0,100,28.84,28.71,0,-999,0,0.00
2013-8-6,69,12,47,-100,-100,-100,0,0,100,28.94,28.81,0,-999,0,0.00
2013-8-7,74,13,48,-100,-100,-100,0,0,100,29.02,28.92,0,-999,0,0.00
2013-8-8,73,12,50,-100,-100,-100,0,0,100,29.01,28.88,0,-999,0,0.00
2013-8-9,71,9,53,-100,-100,-100,0,0,100,29.06,28.83,0,-999,0,0.00
2013-8-10,66,12,51,-100,-100,-100,0,0,100,29.07,28.93,0,-999,0,0.00
2013-8-11,66,13,51,-100,-100,-100,0,0,100,28.93,28.82,0,-999,0,0.00
2013-8-12,67,12,49,-100,-100,-100,0,0,100,28.98,28.80,0,-999,0,0.00
2013-8-13,67,10,46,-100,-100,-100,0,0,100,29.09,28.97,0,-999,0,0.00
2013-8-14,72,13,52,-100,-100,-100,0,0,100,29.09,28.91,0,-999,0,0.00
2013-8-15,66,13,58,-100,-100,-100,0,0,100,28.90,28.72,0,-999,0,0.00
2013-8-16,71,12,51,-100,-100,-100,0,0,100,28.84,28.71,0,-999,0,0.00
2013-8-17,68,12,52,-100,-100,-100,0,0,100,28.82,28.38,0,-999,0,0.00
2013-8-18,62,11,49,-100,-100,-100,0,0,100,28.77,28.44,0,-999,0,0.00
2013-8-19,66,11,48,-100,-100,-100,0,0,100,29.12,28.77,0,-999,0,0.00
2013-8-20,69,11,51,-100,-100,-100,0,0,100,29.20,29.10,0,-999,0,0.00
2013-8-21,71,13,56,-100,-100,-100,0,0,100,29.10,28.99,0,-999,0,0.00
2013-8-22,68,11,54,-100,-100,-100,0,0,100,29.08,28.98,0,-999,0,0.00
2013-8-23,73,12,51,-100,-100,-100,0,0,100,28.98,28.85,0,-999,0,0.00
2013-8-24,68,12,56,-100,-100,-100,0,0,100,28.93,28.86,0,-999,0,0.00
2013-8-25,74,11,51,-100,-100,-100,0,0,100,29.12,28.93,0,-999,0,0.00
2013-8-26,76,13,51,-100,-100,-100,0,0,100,29.13,29.06,0,-999,0,0.00
2013-8-27,73,12,53,-100,-100,-100,0,0,100,29.16,29.03,0,-999,0,0.00
2013-8-28,70,13,49,-100,-100,-100,0,0,100,29.17,29.04,0,-999,0,0.00
2013-8-29,64,12,50,-100,-100,-100,0,0,100,29.04,28.96,0,-999,0,0.00
2013-8-30,66,12,46,-100,-100,-100,0,0,100,29.03,28.81,0,-999,0,0.00
2013-8-31,63,11,44,-100,-100,-100,0,0,100,29.23,29.03,0,-999,0,0.00
2013-9-1,58,11,50,-100,-100,-100,0,0,100,29.21,29.07,0,-999,0,0.00
2013-9-2,65,12,55,-100,-100,-100,0,0,100,29.21,29.05,0,-999,0,0.00
2013-9-3,72,12,54,-100,-100,-100,0,0,100,29.21,29.15,0,-999,0,0.00
2013-9-4,70,12,52,-100,-100,-100,0,0,100,29.14,28.88,0,-999,0,0.00
2013-9-5,62,11,47,-100,-100,-100,0,0,100,28.88,28.83,0,-999,0,0.00
2013-9-6,55,10,45,-100,-100,-100,0,0,100,28.86,28.81,0,-999,0,0.00
2013-9-7,60,10,45,-100,-100,-100,0,0,100,28.88,28.69,0,-999,0,0.00
2013-9-8,64,10,41,-100,-100,-100,0,0,100,28.92,28.87,0,-999,0,0.00
2013-9-9,62,10,45,-100,-100,-100,0,0,100,29.11,28.90,0,-999,0,0.00
2013-9-10,62,11,46,-100,-100,-100,0,0,100,29.19,29.10,0,-999,0,0.00
2013-9-11,60,12,49,-100,-100,-100,0,0,100,29.18,29.03,0,-999,0,0.00
2013-9-12,68,12,53,-100,-100,-100,0,0,100,29.04,28.84,0,-999,0,0.00
2013-9-13,53,10,48,-100,-100,-100,0,0,100,29.04,28.91,0,-999,0,0.00
2013-9-14,62,10,41,-100,-100,-100,0,0,100,29.00,28.88,0,-999,0,0.00
2013-9-15,56,9,41,-100,-100,-100,0,0,100,28.88,28.18,0,-999,0,0.00
2013-9-16,54,10,38,-100,-100,-100,0,0,100,28.31,28.24,0,-999,0,0.00
2013-9-17,54,10,42,-100,-100,-100,0,0,100,28.35,28.26,0,-999,0,0.00
2013-9-18,56,9,40,-100,-100,-100,0,0,100,28.69,28.35,0,-999,0,0.00
2013-9-19,55,10,43,-100,-100,-100,0,0,100,28.71,28.47,0,-999,0,0.00
2013-9-20,58,10,44,-100,-100,-100,0,0,100,29.00,28.71,0,-999,0,0.00
2013-9-21,60,11,45,-100,-100,-100,0,0,100,29.08,28.98,0,-999,0,0.00
2013-9-22,67,12,54,-100,-100,-100,0,0,100,29.24,29.07,0,-999,0,0.00
2013-9-23,67,12,48,-100,-100,-100,0,0,100,29.24,29.07,0,-999,0,0.00
2013-9-24,60,12,55,-100,-100,-100,0,0,100,29.07,28.91,0,-999,0,0.00
2013-9-25,55,11,46,-100,-100,-100,0,0,100,28.99,28.85,0,-999,0,0.00
2013-9-26,58,11,41,-100,-100,-100,0,0,100,29.05,28.99,0,-999,0,0.00
2013-9-27,60,12,51,-100,-100,-100,0,0,100,29.01,28.88,0,-999,0,0.00
2013-9-28,66,12,46,-100,-100,-100,0,0,100,28.89,28.82,0,-999,0,0.00
2013-9-29,62,10,47,-100,-100,-100,0,0,100,28.88,28.85,0,-999,0,0.00
2013-9-30,56,10,47,-100,-100,-100,0,0,100,28.85,28.78,0,-999,0,0.00
2013-10-1,58,10,46,-100,-100,-100,0,0,100,28.85,28.80,0,-999,0,0.00
2013-10-2,56,11,51,-100,-100,-100,0,0,100,28.81,28.73,0,-999,0,0.00
2013-10-3,64,12,55,-100,-100,-100,0,0,100,28.73,28.51,0,-999,0,0.00
2013-10-4,62,12,51,-100,-100,-100,0,0,100,28.77,28.51,0,-999,0,0.00
2013-10-5,58,11,49,-100,-100,-100,0,0,100,29.04,28.77,0,-999,0,0.00
2013-10-6,60,10,50,-100,-100,-100,0,0,100,29.05,29.00,0,-999,0,0.00
2013-10-7,64,12,54,-100,-100,-100,0,0,100,29.03,28.95,0,-999,0,0.00
2013-10-8,58,11,48,-100,-100,-100,0,0,100,29.10,28.94,0,-999,0,0.00
2013-10-9,51,9,41,-100,-100,-100,0,0,100,29.08,28.87,0,-999,0,0.00
2013-10-10,49,9,38,-100,-100,-100,0,0,100,29.34,29.08,0,-999,0,0.00
2013-10-11,50,9,42,-100,-100,-100,0,0,100,29.41,29.33,0,-999,0,0.00
2013-10-12,52,10,46,-100,-100,-100,0,0,100,29.33,29.20,0,-999,0,0.00
2013-10-13,51,10,45,-100,-100,-100,0,0,100,29.20,28.96,0,-999,0,0.00
2013-10-14,56,10,46,-100,-100,-100,0,0,100,28.96,28.86,0,-999,0,0.00
2013-10-15,51,8,42,-100,-100,-100,0,0,100,28.94,28.83,0,-999,0,0.00
2013-10-16,51,8,41,-100,-100,-100,0,0,100,28.92,28.52,0,-999,0,0.00
2013-10-17,53,10,44,-100,-100,-100,0,0,100,28.91,28.57,0,-999,0,0.00
2013-10-18,52,10,46,-100,-100,-100,0,0,100,28.94,28.64,0,-999,0,0.00
2013-10-19,57,11,49,-100,-100,-100,0,0,100,28.64,28.42,0,-999,0,0.00
2013-10-20,56,11,47,-100,-100,-100,0,0,100,28.44,28.39,0,-999,0,0.00
2013-10-21,56,10,47,-100,-100,-100,0,0,100,28.49,28.25,0,-999,0,0.00
2013-10-22,56,11,52,-100,-100,-100,0,0,100,28.25,28.09,0,-999,0,0.00
2013-10-23,53,10,42,-100,-100,-100,0,0,100,28.52,27.98,0,-999,0,0.00
2013-10-24,51,9,42,-100,-100,-100,0,0,100,28.85,28.52,0,-999,0,0.00
2013-10-25,55,10,42,-100,-100,-100,0,0,100,28.79,28.29,0,-999,0,0.00
2013-10-26,53,11,43,-100,-100,-100,0,0,100,28.40,28.12,0,-999,0,0.00
2013-10-27,50,9,42,-100,-100,-100,0,0,100,28.14,27.84,0,-999,0,0.00
2013-10-28,48,9,42,-100,-100,-100,0,0,100,28.29,27.87,0,-999,0,0.00
2013-10-29,48,8,38,-100,-100,-100,0,0,100,28.81,28.29,0,-999,0,0.00
2013-10-30,49,8,38,-100,-100,-100,0,0,100,28.86,28.56,0,-999,0,0.00
2013-10-31,51,8,38,-100,-100,-100,0,0,100,28.76,28.55,0,-999,0,0.00
2013-11-1,48,8,37,-100,-100,-100,0,0,100,28.57,28.51,0,-999,0,0.00
2013-11-2,44,6,34,-100,-100,-100,0,0,100,28.50,27.82,0,-999,0,0.00
2013-11-3,44,8,35,-100,-100,-100,0,0,100,28.23,27.91,0,-999,0,0.00
2013-11-4,44,7,32,-100,-100,-100,0,0,100,28.32,28.15,0,-999,0,0.00
2013-11-5,42,7,29,-100,-100,-100,0,0,100,28.28,28.13,0,-999,0,0.00
2013-11-6,44,8,34,-100,-100,-100,0,0,100,28.33,28.20,0,-999,0,0.00
2013-11-7,44,8,34,-100,-100,-100,0,0,100,28.43,28.32,0,-999,0,0.00
2013-11-8,46,8,35,-100,-100,-100,0,0,100,28.49,28.42,0,-999,0,0.00
2013-11-9,40,8,32,-100,-100,-100,0,0,100,28.57,28.44,0,-999,0,0.00
2013-11-10,40,7,32,-100,-100,-100,0,0,100,29.04,28.57,0,-999,0,0.00
2013-11-11,51,8,35,-100,-100,-100,0,0,100,28.98,28.74,0,-999,0,0.00
2013-11-12,44,2,41,-100,-100,-100,0,0,100,29.28,28.97,0,-999,0,0.00
2013-11-13,45,1,43,-100,-100,-100,0,0,100,29.29,28.75,0,-999,0,0.00
2013-11-14,44,8,36,-100,-100,-100,0,0,100,29.38,28.74,0,-999,0,0.00
2013-11-15,48,10,37,-100,-100,-100,0,0,100,29.38,29.28,0,-999,0,0.00
2013-11-16,49,5,46,-100,-100,-100,0,0,100,29.28,29.14,0,-999,0,0.00
2013-11-17,46,3,41,-100,-100,-100,0,0,100,29.28,28.85,0,-999,0,0.00
2013-11-18,42,5,32,-100,-100,-100,0,0,100,28.84,28.69,0,-999,0,0.00
2013-11-19,37,7,27,-100,-100,-100,0,0,100,28.92,28.55,0,-999,0,0.00
2013-11-20,40,8,33,-100,-100,-100,0,0,100,28.69,28.33,0,-999,0,0.00
2013-11-21,37,7,29,-100,-100,-100,0,0,100,29.06,28.69,0,-999,0,0.00
2013-11-22,35,5,26,-100,-100,-100,0,0,100,29.18,29.06,0,-999,0,0.00
2013-11-23,37,7,29,-100,-100,-100,0,0,100,29.34,29.18,0,-999,0,0.00
2013-11-24,41,7,32,-100,-100,-100,0,0,100,29.57,29.34,0,-999,0,0.00
2013-11-25,40,7,27,-100,-100,-100,0,0,100,29.62,29.56,0,-999,0,0.00
2013-11-26,48,9,39,-100,-100,-100,0,0,100,29.59,29.43,0,-999,0,0.00
2013-11-27,50,10,46,-100,-100,-100,0,0,100,29.45,29.39,0,-999,0,0.00
2013-11-28,46,9,36,-100,-100,-100,0,0,100,29.51,29.25,0,-999,0,0.00
2013-11-29,44,8,36,-100,-100,-100,0,0,100,29.25,29.02,0,-999,0,0.00
2013-11-30,44,8,33,-100,-100,-100,0,0,100,29.31,29.19,0,-999,0,0.00
2013-12-1,46,8,35,-100,-100,-100,0,0,100,29.49,29.28,0,-999,0,0.00
2013-12-2,44,8,35,-100,-100,-100,0,0,100,29.48,29.25,0,-999,0,0.00
2013-12-3,48,9,39,-100,-100,-100,0,0,100,29.25,29.04,0,-999,0,0.00
2013-12-4,40,7,33,-100,-100,-100,0,0,100,29.19,28.99,0,-999,0,0.00
2013-12-5,44,7,29,-100,-100,-100,0,0,100,29.03,28.41,0,-999,0,0.00
2013-12-6,34,6,27,-100,-100,-100,0,0,100,29.21,29.03,0,-999,0,0.00
2013-12-7,45,8,32,-100,-100,-100,0,0,100,29.11,28.89,0,-999,0,0.00
2013-12-8,51,10,44,-100,-100,-100,0,0,100,28.90,28.80,0,-999,0,0.00
2013-12-9,50,10,45,-100,-100,-100,0,0,100,29.12,28.90,0,-999,0,0.00
2013-12-10,48,10,44,-100,-100,-100,0,0,100,29.15,29.06,0,-999,0,0.00
2013-12-11,48,9,39,-100,-100,-100,0,0,100,29.17,28.95,0,-999,0,0.00
2013-12-12,51,10,42,-100,-100,-100,0,0,100,28.95,28.85,0,-999,0,0.00
2013-12-13,51,8,38,-100,-100,-100,0,0,100,28.87,28.65,0,-999,0,0.00
2013-12-14,48,8,36,-100,-100,-100,0,0,100,28.85,28.41,0,-999,0,0.00
2013-12-15,46,8,37,-100,-100,-100,0,0,100,28.78,28.46,0,-999,0,0.00
2013-12-16,45,8,35,-100,-100,-100,0,0,100,28.88,28.46,0,-999,0,0.00
2013-12-17,40,7,32,-100,-100,-100,0,0,100,29.00,28.68,0,-999,0,0.00
2013-12-18,48,9,39,-100,-100,-100,0,0,100,28.67,27.73,0,-999,0,0.00
2013-12-19,40,7,34,-100,-100,-100,0,0,100,28.43,27.81,0,-999,0,0.00
2013-12-20,48,8,34,-100,-100,-100,0,0,100,28.67,28.32,0,-999,0,0.00
2013-12-21,46,6,37,-100,-100,-100,0,0,100,28.44,28.22,0,-999,0,0.00
2013-12-22,38,7,34,-100,-100,-100,0,0,100,28.46,28.25,0,-999,0,0.00
2013-12-23,46,7,33,-100,-100,-100,0,0,100,28.45,27.30,0,-999,0,0.00
2013-12-24,46,7,34,-100,-100,-100,0,0,100,27.46,27.23,0,-999,0,0.00
2013-12-25,40,8,34,-100,-100,-100,0,0,100,28.02,27.46,0,-999,0,0.00
2013-12-26,37,7,29,-100,-100,-100,0,0,100,28.23,27.60,0,-999,0,0.00
2013-12-27,42,8,35,-100,-100,-100,0,0,100,27.72,27.17,0,-999,0,0.00
2013-12-28,39,7,36,-100,-100,-100,0,0,100,28.42,27.73,0,-999,0,0.00
2013-12-29,44,8,35,-100,-100,-100,0,0,100,28.72,28.42,0,-999,0,0.00
2013-12-30,46,8,35,-100,-100,-100,0,0,100,28.55,28.21,0,-999,0,0.00
2013-12-31,42,7,35,-100,-100,-100,0,0,100,28.53,28.19,0,-999,0,0.00
2014-1-1,45,7,36,-100,-100,-100,0,0,100,28.23,27.65,0,-999,0,0.00
2014-1-2,42,8,37,-100,-100,-100,0,0,100,28.08,27.68,0,-999,0,0.00